Temperature
9 10 10 10 11 11 11 11 12 13 14 14 13 13 13 13 14 14 14 14 15 15 15 15 16 16 16 16 16 16 16 16 16 16 16 16 16 16
9 9 9 10 10 10 10 11 11 12 13 13 13 13 13 13 14 14 14 14 15 15 15 15 15 16 16 16 16 16 16 16 16 16 16 16 16 16
8 9 9 8 9 10 10 10 11 11 12 12 13 13 12 13 13 14 14 14 14 15 15 15 15 15 15 16 16 16 16 16 16 16 16 16 16 16
8 8 8 9 9 9 9 10 10 10 11 11 12 12 12 12 13 13 14 14 14 14 15 15 15 15 15 16 16 16 16 16 16 16 16 16 16 16
8 8 8 8 8 9 9 9 10 10 10 11 11 12 12 12 12 13 13 14 14 14 14 14 14 15 15 15 15 16 16 16 16 16 16 16 16 16
8 8 8 8 8 8 8 8 9 9 10 10 11 11 12 12 12 12 13 13 13 14 14 14 14 14 14 15 15 15 16 16 16 16 16 16 16 16
8 8 8 8 8 8 8 9 9 9 10 10 11 11 12 12 12 12 13 13 13 13 13 14 14 14 14 14 15 15 15 16 16 16 16 16 16 16
8 8 8 8 8 8 8 8 8 8 9 9 10 11 11 12 12 12 12 12 12 13 13 13 14 14 14 14 14 15 15 15 15 15 15 16 16 16
8 8 8 8 8 7 7 7 8 8 8 8 9 10 10 11 11 11 12 12 12 13 13 13 13 13 13 14 14 14 15 15 15 15 15 15 15 15
8 8 8 8 8 7 7 7 7 7 7 8 7 8 9 9 10 10 11 11 12 12 12 12 13 13 13 13 14 14 14 15 15 15 15 15 15 15
8 8 8 7 7 7 7 7 7 7 7 8 8 8 8 9 9 9 10 11 11 12 12 12 12 12 12 12 13 13 14 14 15 15 15 15 15 15
8 8 8 8 7 7 7 6 7 7 7 8 8 8 8 8 9 9 9 11 11 11 11 12 12 12 11 12 12 12 13 13 14 14 14 15 15 14
8 8 8 8 7 7 7 6 6 7 7 7 7 8 8 8 8 9 9 10 11 11 11 11 11 12 12 12 12 12 12 12 13 13 13 14 14 14
7 8 8 7 7 7 7 7 7 6 6 6 7 8 8 9 9 9 9 10 10 11 11 11 11 11 12 12 11 11 12 12 12 12 12 12 13 13
7 7 7 7 7 7 7 7 6 6 6 6 7 8 8 9 9 9 9 9 10 10 10 11 11 11 12 12 12 12 11 11 12 12 12 12 12 12
7 7 7 7 7 7 6 6 6 6 6 7 7 8 8 8 9 9 9 9 10 10 10 10 11 11 11 12 12 12 11 11 11 11 12 11 12 12
7 7 7 7 7 7 7 7 7 6 6 7 7 7 8 8 8 9 9 9 9 10 10 10 10 10 11 11 11 11 11 11 11 11 11 11 11 11
7 7 7 7 7 7 7 7 7 7 7 7 7 7 8 8 8 8 9 9 9 9 10 10 10 10 10 10 10 11 11 11 11 11 11 11 11 11
7 7 7 7 7 7 7 7 7 7 7 7 7 7 7 8 8 8 8 9 9 9 9 9 9 10 10 10 10 10 11 11 11 11 10 11 11 11
7 7 7 7 7 7 7 7 7 7 7 7 7 7 7 7 8 8 8 9 9 9 9 9 9 9 10 10 10 10 10 10 11 10 10 10 10 10
7 7 7 7 7 7 7 7 7 7 7 7 7 7 7 7 8 8 8 9 9 9 9 9 9 9 10 10 10 10 10 10 10 11 10 10 10 10
7 7 7 7 7 7 7 7 7 7 7 7 7 7 7 7 8 8 8 9 9 9 9 9 9 9 9 9 9 10 10 9 9 9 10 10 10 10
7 7 7 7 7 7 7 7 7 7 7 7 7 7 7 7 8 8 8 9 9 9 9 8 8 8 9 9 9 9 9 9 9 9 9 9 10 11
Wind_Speed
11 10 10 10 10 10 10 10 11 12 10 7 4 3 4 5 5 8 11 14 18 20 22 24 26 28 30 32 34 34 34 34 33 33 33 32 31 31
10 11 10 11 10 9 10 10 11 12 12 10 7 6 6 8 7 7 9 11 14 16 19 21 23 26 29 31 32 33 34 34 33 33 32 32 31 31
12 12 12 12 11 11 10 10 11 11 13 12 9 7 7 8 8 7 7 9 10 14 17 18 20 22 26 28 30 31 32 32 32 32 31 31 31 30
13 13 13 11 12 12 11 12 12 11 13 14 11 9 8 8 8 7 5 5 6 8 12 14 15 18 21 25 27 29 30 31 31 30 30 30 29 29
13 13 13 13 13 12 12 13 12 12 12 13 13 10 9 8 7 7 6 4 4 6 8 10 12 14 17 20 23 25 27 28 29 29 29 28 27 27
13 14 14 14 14 14 13 13 13 13 12 13 13 11 10 8 7 7 6 5 4 4 4 4 7 10 13 16 18 22 24 26 27 28 27 26 26 25
14 14 14 14 13 13 13 13 12 12 12 12 12 11 11 8 8 6 6 5 5 4 4 4 4 5 7 11 14 18 21 23 24 25 25 24 24 23
15 14 14 14 15 17 18 18 17 15 14 13 12 12 11 11 8 7 6 6 5 5 5 4 3 3 3 5 9 15 18 20 21 21 22 22 22 22
15 14 13 13 12 14 16 20 21 22 21 17 16 15 13 11 10 10 8 7 7 5 6 4 3 3 2 3 8 11 14 17 19 20 20 21 21 21
16 15 15 15 14 13 14 14 15 17 18 19 18 17 16 13 11 11 9 8 6 5 6 4 4 3 2 3 5 8 12 15 17 19 20 20 20 20
15 15 15 15 11 9 14 15 16 15 15 16 15 15 13 11 9 10 10 8 7 5 4 4 4 3 3 2 4 6 9 13 16 18 20 21 22 20
13 13 13 15 11 8 13 15 16 15 15 14 16 17 18 17 15 15 13 11 8 6 5 5 5 5 4 2 2 3 6 10 15 18 21 23 24 17
12 11 10 10 12 12 13 14 15 14 14 14 14 15 15 15 16 17 16 13 11 7 7 7 6 5 5 4 2 2 4 5 7 10 18 22 19 14
13 12 9 5 9 11 12 14 14 12 13 13 13 13 14 14 14 15 16 16 12 9 9 10 6 8 7 6 4 3 3 5 7 7 9 12 11 12
12 12 11 8 9 12 17 17 14 13 13 14 14 14 13 13 12 12 14 13 13 10 10 10 8 8 8 7 8 6 4 4 6 8 8 8 8 10
12 12 14 16 15 14 11 12 13 13 13 14 14 13 12 12 13 12 12 12 11 9 8 10 9 10 8 8 10 10 8 7 7 8 9 8 8 10
9 10 11 11 11 11 11 11 11 12 13 14 13 13 12 12 13 12 12 12 12 11 8 6 4 3 3 5 9 11 11 9 9 9 8 8 8 8
8 11 11 11 11 11 10 10 11 11 12 12 12 12 12 13 13 12 12 13 13 11 10 8 7 4 3 3 1 10 10 10 11 11 9 9 9 9
8 11 12 12 11 11 10 10 10 10 10 11 12 12 12 12 12 12 13 13 13 12 11 11 11 10 9 7 2 3 9 11 12 10 10 8 9 10
10 11 11 11 11 10 10 9 9 9 9 10 11 11 12 12 12 12 13 14 13 12 11 11 13 13 11 9 7 5 8 12 12 12 10 6 6 10
9 10 11 11 11 10 9 9 9 9 9 10 10 11 11 11 12 12 13 14 13 13 13 13 12 11 7 7 8 7 8 7 7 9 12 10 9 10
9 10 10 11 10 10 9 8 9 9 10 10 10 10 10 11 12 13 12 13 13 13 13 11 12 11 8 10 11 12 10 8 5 9 8 4 7 10
9 9 9 9 9 9 9 10 11 9 9 10 10 10 10 10 11 11 12 12 12 13 12 12 11 10 10 9 10 10 14 13 10 9 6 5 7 11
Wind_Direction
272 265 262 272 269 270 271 271 276 282 281 278 266 282 315 307 297 268 246 228 222 220 222 222 222 221 218 217 215 215 216 217 218 219 219 219 219 221
268 275 275 273 275 272 268 266 264 269 276 278 275 281 302 302 292 279 259 233 223 221 220 222 223 223 220 218 215 214 213 214 215 216 216 216 217 220
267 265 263 268 272 274 269 265 262 262 268 273 270 268 275 286 295 291 268 240 225 219 221 222 222 222 220 216 213 212 210 211 211 213 214 215 216 218
266 266 265 264 261 264 269 268 266 266 267 273 276 272 266 271 279 284 272 245 229 211 215 219 220 221 217 213 210 209 209 209 209 210 211 212 213 215
267 265 264 264 263 262 262 264 265 262 259 265 267 266 265 263 270 270 261 238 225 207 202 210 218 220 215 211 208 207 207 206 207 207 208 209 211 212
266 264 263 262 260 260 259 258 262 266 263 261 263 262 256 252 255 258 250 228 215 203 188 186 200 210 211 207 206 205 205 204 204 204 204 205 206 208
269 264 260 258 264 265 266 264 260 257 260 258 257 257 253 247 248 249 253 237 218 206 187 179 180 193 196 196 199 200 199 199 199 199 199 200 201 203
272 269 265 252 244 239 248 258 265 265 264 266 262 259 260 256 250 252 253 242 227 202 191 180 174 170 176 181 183 189 193 193 194 194 194 194 193 193
271 271 269 266 251 251 240 234 243 247 253 261 266 268 267 259 258 252 242 244 246 201 183 175 158 134 73 91 152 178 186 188 189 188 188 186 184 182
267 266 266 267 263 259 261 254 248 242 237 238 247 257 262 271 267 261 262 252 251 222 191 176 157 130 91 78 118 168 179 182 181 179 176 173 171 168
267 265 264 264 259 241 256 260 260 256 247 240 249 256 274 287 282 268 251 239 234 216 195 169 146 128 118 91 78 133 163 170 170 168 165 162 156 151
270 265 252 247 259 237 252 256 257 256 256 247 232 238 246 246 238 245 250 244 233 214 188 168 151 146 136 108 91 110 129 148 157 158 156 154 152 149
278 276 271 211 219 228 241 254 259 267 263 257 251 242 236 233 231 225 229 240 236 222 184 172 166 169 149 138 125 103 124 134 133 141 151 155 160 158
276 276 278 194 215 229 239 248 251 255 256 254 248 242 237 231 226 224 222 226 235 231 194 182 178 176 160 151 147 134 118 130 134 135 140 140 134 136
270 281 289 273 255 248 240 239 239 240 240 243 243 239 236 234 231 223 221 221 226 224 201 196 193 181 180 169 158 154 142 136 139 141 146 151 150 149
262 263 243 244 247 257 256 232 232 236 235 238 240 239 235 232 226 222 217 209 210 209 202 196 196 187 189 178 166 164 159 154 156 154 152 154 162 168
302 283 274 266 254 246 244 240 237 231 230 235 238 236 231 229 225 218 217 213 209 199 186 178 166 155 161 176 174 168 161 155 158 157 156 156 166 172
271 267 268 266 263 258 251 244 238 234 232 231 231 232 229 225 222 217 214 212 210 202 188 174 160 140 114 44 163 168 162 159 159 163 166 162 167 176
244 258 263 265 263 260 255 247 240 235 230 230 229 229 228 226 221 216 214 212 209 201 189 177 177 174 175 174 175 197 166 158 158 166 175 174 171 169
240 253 262 265 265 263 260 250 241 234 228 227 226 225 225 223 220 216 212 211 208 199 189 184 188 188 187 175 161 170 175 165 165 167 169 160 124 109
256 256 259 261 262 261 258 251 244 237 229 224 224 221 222 221 221 218 214 207 207 198 191 191 189 171 152 142 148 154 162 160 160 167 163 156 154 164
271 267 266 262 258 257 254 248 243 238 233 227 223 219 219 221 221 220 216 207 203 199 192 180 168 167 169 173 169 158 155 155 118 113 114 112 173 182
277 273 271 267 260 253 248 245 242 238 231 224 219 215 214 217 222 221 216 210 202 196 182 170 168 175 179 173 163 157 158 159 158 160 152 62 73 98
Height
1504 1503 1502 1502 1501 1500 1500 1499 1499 1496 1493 1493 1492 1491 1490 1490 1489 1489 1490 1492 1495 1498 1502 1506 1510 1515 1520 1525 1530 1535 1540 1546 1551 1555 1560 1564 1568 1572
1499 1498 1497 1497 1497 1496 1495 1494 1494 1493 1490 1489 1489 1488 1487 1487 1486 1486 1485 1487 1489 1492 1495 1498 1502 1506 1511 1516 1521 1526 1532 1537 1543 1548 1552 1557 1561 1565
1494 1494 1492 1491 1491 1491 1490 1490 1489 1488 1486 1485 1485 1484 1483 1482 1482 1482 1482 1482 1484 1486 1488 1491 1494 1497 1502 1507 1512 1518 1523 1529 1535 1540 1545 1550 1555 1559
1489 1489 1488 1487 1486 1485 1485 1484 1484 1483 1482 1480 1480 1480 1479 1478 1477 1477 1478 1478 1479 1480 1482 1484 1487 1489 1493 1498 1503 1509 1515 1521 1527 1532 1538 1543 1548 1552
1484 1483 1482 1481 1480 1480 1479 1479 1479 1478 1477 1476 1475 1475 1475 1474 1474 1473 1473 1474 1474 1475 1477 1478 1480 1482 1486 1490 1495 1501 1507 1514 1519 1525 1531 1536 1541 1546
1478 1477 1476 1475 1475 1474 1474 1473 1473 1473 1472 1472 1471 1470 1470 1470 1469 1469 1469 1470 1470 1471 1472 1473 1475 1477 1479 1483 1488 1494 1500 1506 1512 1519 1524 1529 1534 1539
1472 1471 1470 1469 1468 1468 1468 1468 1468 1468 1467 1467 1466 1466 1466 1465 1465 1465 1465 1465 1466 1467 1468 1469 1471 1472 1474 1477 1482 1487 1493 1500 1506 1512 1518 1523 1528 1533
1465 1464 1463 1462 1460 1460 1459 1460 1461 1461 1462 1462 1461 1461 1461 1461 1461 1461 1461 1461 1462 1463 1464 1465 1467 1468 1470 1473 1477 1482 1488 1494 1500 1506 1512 1517 1522 1527
1459 1458 1457 1457 1455 1454 1453 1452 1452 1452 1454 1455 1455 1456 1456 1457 1457 1457 1457 1457 1458 1459 1460 1461 1463 1465 1467 1469 1473 1478 1483 1489 1494 1500 1506 1512 1517 1522
1452 1451 1450 1449 1449 1448 1447 1447 1446 1446 1446 1447 1447 1448 1451 1451 1452 1452 1453 1453 1454 1455 1456 1458 1459 1462 1465 1467 1470 1474 1479 1484 1490 1495 1501 1506 1512 1517
1446 1444 1443 1442 1441 1440 1440 1440 1439 1440 1440 1440 1440 1441 1442 1444 1446 1447 1449 1449 1449 1450 1452 1454 1456 1459 1462 1464 1468 1471 1475 1480 1486 1491 1496 1502 1507 1512
1439 1437 1436 1434 1434 1433 1433 1433 1432 1432 1433 1434 1433 1433 1434 1436 1438 1440 1443 1445 1445 1446 1447 1450 1452 1456 1459 1462 1465 1468 1472 1477 1482 1487 1492 1497 1503 1507
1433 1431 1430 1428 1427 1426 1425 1425 1425 1426 1426 1426 1427 1427 1428 1429 1431 1433 1436 1439 1440 1441 1443 1446 1449 1452 1456 1459 1463 1466 1470 1474 1478 1483 1489 1494 1499 1504
1426 1425 1424 1422 1420 1419 1418 1417 1417 1418 1418 1419 1420 1420 1421 1423 1425 1427 1430 1432 1435 1437 1439 1441 1444 1448 1452 1455 1459 1464 1468 1472 1476 1481 1486 1491 1496 1501
1419 1418 1416 1415 1413 1411 1410 1410 1410 1410 1410 1411 1412 1413 1414 1416 1419 1421 1423 1426 1428 1431 1433 1436 1440 1443 1448 1451 1455 1460 1464 1469 1474 1479 1484 1489 1493 1498
1413 1411 1409 1407 1405 1404 1403 1402 1402 1402 1403 1404 1405 1406 1408 1410 1412 1414 1417 1419 1423 1425 1428 1431 1435 1439 1444 1448 1452 1456 1461 1465 1470 1476 1481 1486 1491 1496
1407 1405 1403 1401 1399 1397 1396 1396 1395 1395 1395 1396 1398 1399 1401 1403 1405 1408 1411 1414 1417 1419 1422 1426 1430 1435 1440 1444 1449 1453 1457 1462 1468 1473 1478 1483 1488 1493
1400 1398 1396 1394 1393 1391 1390 1389 1388 1388 1389 1389 1391 1393 1395 1397 1399 1402 1404 1408 1410 1413 1416 1420 1425 1430 1435 1440 1445 1449 1454 1459 1464 1470 1475 1480 1485 1489
1394 1392 1390 1388 1386 1385 1384 1383 1382 1382 1382 1383 1384 1386 1388 1391 1393 1395 1398 1401 1404 1408 1411 1414 1419 1424 1429 1434 1439 1445 1450 1455 1460 1466 1472 1477 1482 1486
1387 1385 1384 1382 1380 1379 1378 1377 1376 1376 1376 1377 1378 1380 1382 1384 1387 1389 1392 1395 1399 1402 1406 1409 1414 1419 1424 1429 1435 1440 1447 1452 1457 1462 1468 1473 1478 1482
1381 1379 1377 1376 1374 1372 1371 1370 1370 1370 1370 1371 1372 1374 1376 1379 1381 1384 1387 1390 1393 1397 1400 1404 1409 1415 1421 1427 1431 1436 1442 1448 1453 1458 1464 1469 1473 1478
1375 1373 1371 1369 1368 1366 1365 1365 1364 1364 1365 1366 1367 1369 1371 1373 1376 1379 1382 1384 1388 1391 1395 1400 1404 1410 1415 1420 1425 1430 1436 1443 1449 1455 1461 1465 1469 1474
1370 1367 1365 1363 1361 1360 1360 1359 1359 1359 1360 1361 1363 1364 1366 1368 1371 1374 1377 1380 1383 1387 1391 1395 1400 1405 1411 1416 1421 1426 1431 1438 1444 1450 1456 1461 1466 1472